ITY340 EGCC-EDDS

Flight info

Callsign ITY340
Flight time N/A
Altitude 23000
Route SANBA UN859 UTUXA N859 HON/N0489F410 L15 FINMA DCT CHT DCT ITVIP DCT KONAN UL607 REMBA DCT PITES/N0442F230 M150 KRH T128 BADSO BADSO2A
Aircraft A359/H-SDE2E3GHIJ3J4J5LM1ORWXY/LB1D1

Departure

Time 2026-05-04 15:45
Airport Manchester Airport (EGCC)

Arrival

Time N/A
Airport Stuttgart Airport (EDDS)
Time Latitude Longitude Altitude Speed Heading
2026-05-04 15:02 53.36173 -2.27772 254 ft 0 kts 45°
2026-05-04 15:22 53.36169 -2.27778 254 ft 1 kts 45°
2026-05-04 15:23 53.36165 -2.27785 254 ft 1 kts 45°
2026-05-04 15:23 53.36160 -2.27794 254 ft 1 kts 45°
2026-05-04 15:23 53.36154 -2.27803 254 ft 1 kts 45°
2026-05-04 15:23 53.36149 -2.27813 254 ft 1 kts 41°
2026-05-04 15:24 53.36130 -2.27839 255 ft 2 kts 49°
2026-05-04 15:24 53.36120 -2.27875 255 ft 2 kts 90°
2026-05-04 15:25 53.36120 -2.27895 255 ft 2 kts 97°
2026-05-04 15:25 53.36121 -2.27903 256 ft 0 kts 107°
2026-05-04 15:25 53.36122 -2.27908 256 ft 0 kts 107°
2026-05-04 15:30 53.36079 -2.27683 253 ft 15 kts 105°
2026-05-04 15:31 53.36056 -2.27619 253 ft 0 kts 178°
2026-05-04 15:31 53.36046 -2.27620 253 ft 4 kts 183°
2026-05-04 15:32 53.35842 -2.27655 254 ft 15 kts 185°
2026-05-04 15:32 53.35805 -2.27660 254 ft 3 kts 185°
2026-05-04 15:33 53.35734 -2.27641 254 ft 5 kts 165°
2026-05-04 15:34 53.35680 -2.27592 253 ft 0 kts 127°
2026-05-04 15:34 53.35680 -2.27591 253 ft 0 kts 130°
2026-05-04 15:34 53.35655 -2.27563 253 ft 8 kts 144°
2026-05-04 15:35 53.35662 -2.27368 249 ft 14 kts 50°
2026-05-04 15:35 53.35726 -2.27234 247 ft 15 kts 51°
2026-05-04 15:35 53.35796 -2.27089 245 ft 16 kts 50°
2026-05-04 15:36 53.35889 -2.26861 242 ft 0 kts 53°
2026-05-04 15:36 53.35890 -2.26858 241 ft 2 kts 53°
2026-05-04 15:36 53.35910 -2.26814 241 ft 8 kts 52°
2026-05-04 15:37 53.35924 -2.26774 240 ft 0 kts 92°
2026-05-04 15:38 53.35922 -2.26760 240 ft 2 kts 101°
2026-05-04 15:39 53.35902 -2.26724 240 ft 6 kts 146°
2026-05-04 15:39 53.35849 -2.26694 241 ft 10 kts 165°
2026-05-04 15:39 53.35675 -2.26638 242 ft 14 kts 171°
2026-05-04 15:40 53.35660 -2.26635 242 ft 0 kts 171°
2026-05-04 15:40 53.35659 -2.26634 242 ft 1 kts 171°
2026-05-04 15:40 53.35637 -2.26629 242 ft 6 kts 172°
2026-05-04 15:41 53.35581 -2.26643 244 ft 10 kts 199°
2026-05-04 15:41 53.35524 -2.26722 246 ft 12 kts 229°
2026-05-04 15:41 53.35466 -2.26839 248 ft 14 kts 232°
2026-05-04 15:41 53.35421 -2.26935 250 ft 5 kts 231°
2026-05-04 15:42 53.35392 -2.26996 252 ft 8 kts 231°
2026-05-04 15:42 53.35360 -2.27061 254 ft 6 kts 230°
2026-05-04 15:42 53.35329 -2.27124 256 ft 8 kts 230°
2026-05-04 15:42 53.35287 -2.27190 259 ft 8 kts 212°
2026-05-04 15:43 53.35241 -2.27218 264 ft 6 kts 194°
2026-05-04 15:43 53.35210 -2.27230 267 ft 4 kts 192°
2026-05-04 15:43 53.35174 -2.27243 271 ft 8 kts 191°
2026-05-04 15:43 53.35087 -2.27273 277 ft 15 kts 192°
2026-05-04 15:44 53.34992 -2.27364 276 ft 17 kts 231°
2026-05-04 15:44 53.34903 -2.27543 272 ft 24 kts 231°
2026-05-04 15:44 53.34627 -2.28121 267 ft 112 kts 231°
2026-05-04 15:44 53.33962 -2.29484 396 ft 181 kts 231°
2026-05-04 15:45 53.33106 -2.31254 831 ft 211 kts 231°
2026-05-04 15:45 53.32402 -2.33566 1253 ft 241 kts 259°
2026-05-04 15:45 53.32495 -2.36406 1749 ft 241 kts 281°
2026-05-04 15:45 53.32512 -2.39096 2258 ft 235 kts 254°
2026-05-04 15:46 53.31598 -2.41291 2774 ft 235 kts 217°
2026-05-04 15:46 53.30171 -2.42657 3291 ft 237 kts 207°
2026-05-04 15:46 53.28656 -2.43784 3757 ft 240 kts 200°
2026-05-04 15:46 53.27006 -2.44224 3980 ft 242 kts 179°
2026-05-04 15:47 53.25373 -2.43571 4000 ft 243 kts 156°
2026-05-04 15:47 53.23865 -2.42274 3998 ft 245 kts 151°
2026-05-04 15:47 53.22375 -2.40890 3996 ft 245 kts 151°
2026-05-04 15:47 53.20882 -2.39520 4054 ft 245 kts 152°
2026-05-04 15:48 53.19380 -2.38167 4056 ft 245 kts 152°
2026-05-04 15:48 53.17874 -2.36844 4064 ft 245 kts 153°
2026-05-04 15:48 53.14747 -2.34121 4739 ft 269 kts 153°
2026-05-04 15:49 53.13088 -2.32674 4983 ft 269 kts 152°
2026-05-04 15:49 53.11435 -2.31226 5006 ft 269 kts 153°
2026-05-04 15:49 53.09770 -2.29774 5263 ft 272 kts 153°
2026-05-04 15:49 53.08086 -2.28308 6104 ft 273 kts 153°
2026-05-04 15:50 53.06406 -2.26848 7080 ft 274 kts 153°
2026-05-04 15:50 53.04680 -2.25350 7755 ft 286 kts 153°
2026-05-04 15:50 53.02893 -2.23801 8221 ft 292 kts 153°
2026-05-04 15:50 53.01082 -2.22229 8697 ft 295 kts 153°
2026-05-04 15:51 52.99286 -2.20664 9151 ft 297 kts 153°
2026-05-04 15:51 52.97447 -2.19063 9636 ft 299 kts 153°
2026-05-04 15:51 52.95594 -2.17458 10092 ft 302 kts 153°
2026-05-04 15:51 52.93705 -2.15827 10523 ft 313 kts 153°
2026-05-04 15:52 52.91727 -2.14121 10949 ft 329 kts 153°
2026-05-04 15:52 52.89647 -2.12329 11389 ft 343 kts 153°
2026-05-04 15:52 52.87498 -2.10477 11825 ft 353 kts 153°
2026-05-04 15:52 52.85309 -2.08591 12269 ft 357 kts 153°
2026-05-04 15:53 52.83109 -2.06697 12736 ft 365 kts 153°
2026-05-04 15:53 52.80797 -2.04708 13199 ft 374 kts 153°
2026-05-04 15:53 52.78469 -2.02708 13673 ft 381 kts 153°
2026-05-04 15:53 52.76128 -2.00700 14099 ft 387 kts 153°
2026-05-04 15:54 52.73732 -1.98646 14536 ft 391 kts 153°
2026-05-04 15:54 52.71301 -1.96565 14973 ft 395 kts 154°
2026-05-04 15:54 52.68841 -1.94464 15417 ft 400 kts 153°
2026-05-04 15:54 52.66358 -1.92345 15865 ft 405 kts 153°
2026-05-04 15:55 52.63845 -1.90204 16323 ft 408 kts 153°
2026-05-04 15:55 52.61315 -1.88051 16779 ft 411 kts 153°
2026-05-04 15:55 52.58763 -1.85881 17234 ft 414 kts 153°
2026-05-04 15:55 52.56198 -1.83704 17719 ft 416 kts 153°
2026-05-04 15:56 52.53660 -1.81553 18194 ft 419 kts 153°
2026-05-04 15:56 52.51061 -1.79352 18634 ft 421 kts 153°
2026-05-04 15:56 52.48448 -1.77141 19072 ft 422 kts 153°
2026-05-04 15:56 52.45833 -1.74932 19516 ft 424 kts 153°
2026-05-04 15:57 52.43207 -1.72718 19953 ft 426 kts 153°
2026-05-04 15:57 52.40568 -1.70496 20393 ft 427 kts 153°
2026-05-04 15:57 52.37926 -1.68234 20862 ft 429 kts 151°
2026-05-04 15:57 52.35458 -1.65478 21327 ft 431 kts 141°
2026-05-04 15:58 52.33221 -1.62203 21806 ft 433 kts 137°
2026-05-04 15:58 52.31104 -1.58787 22279 ft 434 kts 135°
2026-05-04 15:58 52.29009 -1.55231 22776 ft 435 kts 134°
2026-05-04 15:58 52.26931 -1.51627 23259 ft 436 kts 134°
2026-05-04 15:59 52.24855 -1.48015 23734 ft 437 kts 134°
2026-05-04 15:59 52.22769 -1.44407 24157 ft 438 kts 135°
2026-05-04 15:59 52.20662 -1.40791 24589 ft 440 kts 135°
2026-05-04 15:59 52.18543 -1.37180 25028 ft 441 kts 135°
2026-05-04 16:00 52.16416 -1.33570 25466 ft 443 kts 135°
2026-05-04 16:00 52.14270 -1.29941 25920 ft 446 kts 135°
2026-05-04 16:00 52.12113 -1.26302 26369 ft 449 kts 136°
2026-05-04 16:00 52.09967 -1.22686 26822 ft 452 kts 136°
2026-05-04 16:01 52.07777 -1.19002 27302 ft 455 kts 136°
2026-05-04 16:01 52.05564 -1.15284 27778 ft 459 kts 136°
2026-05-04 16:01 52.03330 -1.11535 28268 ft 463 kts 136°
2026-05-04 16:01 52.01080 -1.07764 28744 ft 467 kts 136°
2026-05-04 16:02 51.98805 -1.03974 29245 ft 470 kts 137°
2026-05-04 16:02 51.96434 -1.00293 29761 ft 473 kts 140°
2026-05-04 16:02 51.91412 -0.93175 30038 ft 484 kts 142°
2026-05-04 16:03 51.88861 -0.89625 30028 ft 484 kts 142°
2026-05-04 16:03 51.84630 -0.83675 30035 ft 485 kts 141°
2026-05-04 16:04 51.83856 -0.82577 30034 ft 485 kts 141°
2026-05-04 16:04 51.76269 -0.71736 30019 ft 483 kts 141°
2026-05-04 16:05 51.71299 -0.64634 30006 ft 482 kts 141°
2026-05-04 16:06 51.64010 -0.53465 30026 ft 486 kts 131°
2026-05-04 16:06 51.59899 -0.40575 30026 ft 495 kts 113°
2026-05-04 16:07 51.58410 -0.33563 30016 ft 496 kts 111°
2026-05-04 16:08 51.54134 -0.12484 30211 ft 506 kts 111°
2026-05-04 16:08 51.50789 0.03480 31687 ft 502 kts 111°
2026-05-04 16:09 51.48538 0.14096 32314 ft 504 kts 111°
2026-05-04 16:09 51.46272 0.24716 32108 ft 503 kts 112°
2026-05-04 16:10 51.43995 0.35340 32009 ft 505 kts 112°
2026-05-04 16:11 51.39416 0.56586 32010 ft 506 kts 112°
2026-05-04 16:12 51.32462 0.88411 31983 ft 506 kts 112°
2026-05-04 16:13 51.28040 1.09640 31993 ft 506 kts 108°
2026-05-04 16:14 51.24488 1.31397 31987 ft 507 kts 107°
2026-05-04 16:16 51.20038 1.58540 31989 ft 509 kts 108°
2026-05-04 16:17 51.15794 1.83944 31979 ft 509 kts 108°
2026-05-04 16:18 51.12784 2.05773 31988 ft 512 kts 99°
2026-05-04 16:19 51.11320 2.32416 31979 ft 513 kts 98°
2026-05-04 16:20 51.09742 2.60599 31979 ft 512 kts 98°
2026-05-04 16:21 51.07372 2.77043 31983 ft 507 kts 109°
2026-05-04 16:22 51.05414 2.87792 31986 ft 507 kts 110°
2026-05-04 16:23 50.99476 3.19914 31974 ft 506 kts 110°
2026-05-04 16:25 50.93472 3.52035 31959 ft 506 kts 110°
2026-05-04 16:26 50.86323 3.89328 31961 ft 506 kts 111°
2026-05-04 16:28 50.81113 4.15928 31962 ft 506 kts 111°
2026-05-04 16:29 50.73733 4.53027 31962 ft 507 kts 111°
2026-05-04 16:31 50.68529 4.79521 31959 ft 508 kts 111°
2026-05-04 16:31 50.64257 4.94531 31966 ft 495 kts 130°
2026-05-04 16:32 50.57869 5.06419 31563 ft 449 kts 136°
2026-05-04 16:33 50.53808 5.13472 31042 ft 422 kts 137°
2026-05-04 16:33 50.49963 5.20152 30587 ft 411 kts 137°
2026-05-04 16:34 50.46096 5.26862 30080 ft 420 kts 137°
2026-05-04 16:34 50.44144 5.30268 29801 ft 419 kts 137°
2026-05-04 16:35 50.38229 5.40574 29080 ft 443 kts 137°
2026-05-04 16:35 50.31771 5.51766 28693 ft 468 kts 136°
2026-05-04 16:36 50.29596 5.55551 28400 ft 468 kts 136°
2026-05-04 16:36 50.25243 5.63097 27857 ft 466 kts 137°
2026-05-04 16:37 50.20913 5.70567 27340 ft 463 kts 137°
2026-05-04 16:37 50.18773 5.74247 27092 ft 462 kts 137°
2026-05-04 16:37 50.14463 5.81637 26562 ft 460 kts 136°
2026-05-04 16:38 50.10164 5.88986 26064 ft 458 kts 136°
2026-05-04 16:39 50.03767 5.99890 25316 ft 455 kts 136°
2026-05-04 16:39 49.99504 6.07132 24816 ft 453 kts 136°
2026-05-04 16:40 49.95256 6.14327 24352 ft 451 kts 136°
2026-05-04 16:40 49.91014 6.21488 23881 ft 450 kts 136°
2026-05-04 16:41 49.86780 6.28619 23400 ft 448 kts 136°
2026-05-04 16:41 49.80494 6.39173 22575 ft 444 kts 136°
2026-05-04 16:42 49.74276 6.49700 21769 ft 440 kts 133°
2026-05-04 16:43 49.70895 6.57593 20984 ft 440 kts 123°
2026-05-04 16:43 49.68081 6.65631 20365 ft 418 kts 121°
2026-05-04 16:43 49.66740 6.69599 20040 ft 415 kts 121°
2026-05-04 16:44 49.61393 6.85249 18990 ft 410 kts 121°
2026-05-04 16:45 49.58714 6.92971 18522 ft 407 kts 121°